Precipitable_Water
0.73 0.55 0.53 0.51 0.45 0.51 0.50 0.52 0.51 0.50 0.45 0.46 0.43 0.40 0.44 0.38 0.47 0.57 0.53 0.61 0.67 0.57 0.54 0.63 0.68 0.65 0.66 0.71 0.76 0.84 0.91 0.91 1.05 1.01 1.01 1.01 1.01 1.02 1.02 1.03 1.04 1.06 1.09 1.20 1.23 1.27 1.27 1.28 1.29 1.31 1.29 1.30 1.37 1.35 1.37 1.34 1.34 1.33 1.30 1.28 1.29 1.36 1.37 1.31 1.27 1.24 1.16 1.06 0.95 0.98 0.91 0.85 0.83 0.79 0.78 0.79 0.78 0.74 0.78 0.77 0.70 0.65 0.61 0.58 0.61 0.56
0.73 0.53 0.53 0.55 0.56 0.55 0.57 0.66 0.61 0.53 0.49 0.45 0.43 0.43 0.42 0.49 0.46 0.54 0.55 0.64 0.72 0.55 0.54 0.66 0.64 0.66 0.73 0.79 0.82 0.88 0.86 0.89 0.99 0.98 0.95 0.98 0.99 1.01 0.98 0.96 1.00 1.06 1.15 1.18 1.18 1.21 1.24 1.27 1.27 1.29 1.31 1.31 1.25 1.28 1.30 1.34 1.29 1.33 1.30 1.29 1.31 1.35 1.33 1.33 1.28 1.21 1.15 1.07 1.00 0.90 0.83 0.83 0.83 0.78 0.72 0.75 0.74 0.70 0.72 0.75 0.75 0.71 0.63 0.53 0.53 0.51
0.59 0.53 0.60 0.62 0.67 0.65 0.65 0.58 0.56 0.54 0.48 0.48 0.45 0.41 0.42 0.43 0.55 0.61 0.61 0.71 0.66 0.63 0.51 0.62 0.60 0.60 0.71 0.81 0.85 0.84 0.93 1.02 1.09 1.01 1.01 0.91 0.89 0.92 0.94 0.95 0.96 0.98 1.02 1.11 1.16 1.18 1.20 1.25 1.32 1.31 1.29 1.29 1.28 1.28 1.31 1.33 1.33 1.33 1.30 1.33 1.35 1.35 1.34 1.32 1.28 1.16 1.14 1.09 1.04 0.93 0.87 0.79 0.79 0.82 0.78 0.77 0.78 0.78 0.75 0.77 0.73 0.66 0.57 0.50 0.54 0.59
0.44 0.56 0.63 0.64 0.62 0.56 0.59 0.56 0.52 0.52 0.58 0.53 0.49 0.46 0.40 0.49 0.49 0.42 0.53 0.60 0.68 0.61 0.53 0.55 0.56 0.65 0.80 0.90 0.87 0.91 0.97 1.03 1.06 1.04 1.04 0.99 0.92 0.90 0.89 0.91 0.92 0.98 1.03 1.06 1.11 1.12 1.17 1.24 1.32 1.32 1.24 1.24 1.27 1.32 1.33 1.36 1.38 1.33 1.32 1.34 1.37 1.35 1.34 1.30 1.25 1.20 1.14 1.09 1.04 0.98 0.91 0.86 0.77 0.81 0.81 0.76 0.77 0.76 0.73 0.71 0.72 0.68 0.64 0.56 0.47 0.58
0.49 0.56 0.65 0.67 0.63 0.59 0.55 0.51 0.46 0.46 0.45 0.53 0.55 0.55 0.49 0.50 0.53 0.64 0.65 0.71 0.71 0.68 0.58 0.60 0.56 0.59 0.71 0.67 0.74 0.85 0.95 0.96 0.99 0.96 0.94 0.97 0.99 1.02 0.99 0.93 0.92 0.94 1.01 1.06 1.11 1.15 1.19 1.19 1.20 1.22 1.21 1.23 1.22 1.28 1.33 1.35 1.36 1.32 1.29 1.36 1.38 1.35 1.32 1.29 1.26 1.19 1.10 1.06 1.00 0.95 0.91 0.88 0.79 0.77 0.79 0.73 0.71 0.69 0.69 0.70 0.68 0.70 0.68 0.60 0.49 0.48
0.55 0.62 0.69 0.64 0.65 0.63 0.58 0.52 0.48 0.44 0.39 0.46 0.56 0.60 0.61 0.65 0.61 0.60 0.61 0.58 0.53 0.51 0.56 0.54 0.42 0.41 0.57 0.63 0.65 0.71 0.79 0.83 0.93 0.86 0.86 0.87 0.86 0.89 0.89 0.90 0.95 0.98 1.02 1.04 1.08 1.14 1.18 1.21 1.20 1.19 1.21 1.22 1.26 1.28 1.33 1.35 1.37 1.32 1.35 1.39 1.39 1.35 1.32 1.27 1.23 1.16 1.07 1.00 0.94 0.88 0.82 0.74 0.69 0.66 0.68 0.67 0.63 0.67 0.67 0.68 0.71 0.70 0.70 0.65 0.56 0.45
0.59 0.63 0.70 0.65 0.60 0.64 0.62 0.58 0.62 0.56 0.48 0.45 0.48 0.63 0.60 0.63 0.64 0.60 0.55 0.50 0.40 0.35 0.47 0.57 0.41 0.37 0.53 0.55 0.62 0.68 0.70 0.75 0.86 0.81 0.82 0.87 0.88 0.87 0.89 0.94 0.97 0.96 1.00 1.08 1.19 1.22 1.19 1.20 1.16 1.18 1.22 1.25 1.27 1.33 1.42 1.40 1.39 1.38 1.38 1.40 1.40 1.34 1.30 1.28 1.22 1.15 1.06 0.96 0.93 0.89 0.84 0.77 0.69 0.64 0.66 0.70 0.68 0.68 0.74 0.67 0.75 0.72 0.74 0.72 0.60 0.48
0.65 0.64 0.67 0.67 0.68 0.65 0.62 0.60 0.65 0.68 0.59 0.48 0.63 0.66 0.64 0.66 0.58 0.55 0.53 0.53 0.47 0.57 0.56 0.54 0.53 0.47 0.45 0.55 0.66 0.69 0.66 0.67 0.70 0.73 0.79 0.82 0.85 0.86 0.89 0.92 0.98 1.05 1.07 1.08 1.14 1.17 1.18 1.17 1.16 1.15 1.24 1.32 1.35 1.41 1.41 1.41 1.44 1.41 1.38 1.38 1.39 1.38 1.32 1.25 1.20 1.11 1.05 0.98 0.96 0.92 0.86 0.78 0.70 0.63 0.68 0.69 0.68 0.71 0.72 0.71 0.75 0.73 0.73 0.73 0.63 0.53
0.70 0.65 0.63 0.64 0.64 0.66 0.59 0.61 0.68 0.77 0.67 0.59 0.69 0.71 0.67 0.67 0.64 0.60 0.58 0.55 0.56 0.53 0.45 0.48 0.63 0.48 0.50 0.56 0.67 0.68 0.62 0.63 0.64 0.69 0.73 0.78 0.82 0.86 0.87 0.92 1.01 1.09 1.11 1.13 1.16 1.15 1.15 1.16 1.21 1.26 1.30 1.39 1.42 1.40 1.39 1.40 1.43 1.41 1.39 1.40 1.43 1.40 1.32 1.24 1.17 1.07 1.02 0.99 0.99 0.96 0.87 0.76 0.71 0.72 0.73 0.72 0.73 0.69 0.67 0.70 0.75 0.71 0.72 0.76 0.70 0.63
0.71 0.71 0.69 0.66 0.63 0.61 0.63 0.70 0.73 0.74 0.60 0.66 0.72 0.70 0.71 0.69 0.67 0.66 0.59 0.60 0.56 0.51 0.41 0.48 0.59 0.45 0.50 0.61 0.63 0.69 0.66 0.60 0.63 0.69 0.73 0.77 0.81 0.85 0.88 0.93 1.04 1.16 1.20 1.19 1.15 1.16 1.22 1.27 1.31 1.33 1.37 1.38 1.42 1.44 1.41 1.43 1.46 1.42 1.39 1.41 1.40 1.33 1.28 1.20 1.12 1.05 1.04 1.01 0.98 0.94 0.85 0.76 0.68 0.65 0.69 0.70 0.71 0.71 0.71 0.68 0.68 0.69 0.71 0.70 0.72 0.71
0.71 0.73 0.73 0.67 0.62 0.68 0.69 0.73 0.75 0.71 0.72 0.79 0.74 0.67 0.67 0.66 0.64 0.67 0.66 0.61 0.54 0.43 0.47 0.58 0.60 0.53 0.45 0.55 0.62 0.63 0.65 0.70 0.70 0.70 0.76 0.82 0.84 0.86 0.90 0.95 1.02 1.12 1.18 1.15 1.17 1.21 1.33 1.38 1.36 1.40 1.36 1.40 1.46 1.42 1.30 1.36 1.41 1.40 1.39 1.36 1.33 1.30 1.25 1.18 1.09 1.04 1.02 1.02 0.99 0.94 0.88 0.79 0.70 0.68 0.67 0.65 0.69 0.70 0.70 0.67 0.68 0.68 0.70 0.69 0.73 0.75
0.67 0.68 0.69 0.73 0.77 0.74 0.76 0.70 0.75 0.75 0.77 0.71 0.65 0.66 0.62 0.60 0.66 0.63 0.60 0.66 0.47 0.46 0.58 0.69 0.60 0.60 0.45 0.52 0.68 0.75 0.78 0.76 0.76 0.71 0.72 0.79 0.83 0.87 0.92 0.99 1.05 1.12 1.20 1.20 1.16 1.27 1.33 1.36 1.38 1.36 1.32 1.34 1.38 1.29 1.23 1.28 1.35 1.41 1.39 1.33 1.29 1.27 1.19 1.13 1.09 1.06 1.04 1.03 0.99 0.96 0.94 0.85 0.77 0.68 0.65 0.65 0.64 0.65 0.66 0.70 0.69 0.70 0.69 0.73 0.70 0.70
0.63 0.63 0.68 0.67 0.76 0.76 0.68 0.62 0.65 0.71 0.73 0.70 0.66 0.60 0.51 0.44 0.49 0.40 0.47 0.40 0.42 0.42 0.55 0.62 0.61 0.54 0.54 0.63 0.71 0.75 0.75 0.79 0.81 0.82 0.85 0.85 0.86 0.92 0.98 1.03 1.09 1.13 1.24 1.22 1.20 1.23 1.28 1.30 1.26 1.24 1.23 1.29 1.32 1.27 1.29 1.34 1.33 1.35 1.35 1.33 1.24 1.20 1.16 1.12 1.11 1.07 1.06 1.03 1.00 0.97 0.94 0.93 0.88 0.76 0.68 0.65 0.65 0.66 0.65 0.68 0.69 0.68 0.67 0.69 0.65 0.69
0.60 0.71 0.69 0.72 0.68 0.72 0.71 0.58 0.58 0.57 0.65 0.63 0.62 0.59 0.48 0.38 0.37 0.34 0.40 0.46 0.44 0.53 0.61 0.61 0.69 0.54 0.64 0.68 0.79 0.76 0.81 0.81 0.87 0.92 0.92 0.94 0.92 0.96 1.00 1.08 1.11 1.15 1.15 1.18 1.18 1.26 1.27 1.25 1.25 1.20 1.22 1.25 1.27 1.30 1.33 1.39 1.36 1.32 1.33 1.34 1.37 1.27 1.20 1.17 1.13 1.11 1.08 1.06 1.06 1.06 1.03 1.02 0.97 0.88 0.77 0.69 0.68 0.68 0.66 0.67 0.67 0.70 0.70 0.69 0.69 0.70
0.47 0.49 0.59 0.69 0.66 0.78 0.67 0.68 0.66 0.65 0.64 0.65 0.73 0.67 0.55 0.48 0.40 0.33 0.38 0.33 0.39 0.44 0.52 0.65 0.54 0.48 0.56 0.62 0.89 0.85 0.86 0.89 0.96 0.97 0.99 0.99 1.05 1.02 1.07 1.08 1.12 1.15 1.14 1.27 1.30 1.23 1.25 1.27 1.23 1.20 1.20 1.20 1.25 1.33 1.37 1.36 1.35 1.34 1.35 1.31 1.32 1.22 1.23 1.23 1.19 1.17 1.14 1.13 1.11 1.09 1.09 1.08 1.04 0.99 0.93 0.86 0.78 0.75 0.76 0.72 0.68 0.69 0.72 0.71 0.73 0.74
0.53 0.50 0.62 0.74 0.72 0.77 0.69 0.76 0.79 0.69 0.67 0.70 0.74 0.70 0.59 0.55 0.61 0.46 0.49 0.48 0.46 0.46 0.48 0.54 0.55 0.67 0.64 0.86 0.95 0.94 0.94 0.88 0.94 0.95 0.88 0.90 1.02 1.06 1.05 1.10 1.11 1.17 1.18 1.27 1.29 1.31 1.27 1.23 1.19 1.16 1.20 1.24 1.27 1.31 1.33 1.33 1.32 1.31 1.35 1.35 1.30 1.24 1.27 1.30 1.24 1.22 1.20 1.17 1.16 1.13 1.08 1.08 1.07 1.05 1.00 0.97 0.94 0.86 0.81 0.81 0.79 0.75 0.74 0.75 0.78 0.78
0.56 0.48 0.66 0.71 0.79 0.75 0.74 0.80 0.77 0.85 0.53 0.64 0.67 0.54 0.62 0.75 0.69 0.56 0.56 0.59 0.55 0.50 0.44 0.63 0.58 0.67 0.86 0.85 0.86 0.91 0.93 0.95 0.94 0.87 0.89 0.92 1.00 1.00 1.08 1.10 1.18 1.20 1.14 1.26 1.25 1.22 1.26 1.26 1.16 1.19 1.19 1.20 1.29 1.30 1.23 1.19 1.19 1.29 1.30 1.26 1.27 1.27 1.30 1.32 1.32 1.29 1.28 1.21 1.17 1.16 1.13 1.11 1.10 1.07 1.03 1.01 1.00 0.98 0.96 0.90 0.86 0.84 0.85 0.80 0.77 0.79
0.51 0.48 0.65 0.67 0.66 0.73 0.81 0.82 0.81 0.82 0.77 0.68 0.57 0.62 0.71 0.82 0.73 0.58 0.41 0.49 0.47 0.40 0.45 0.58 0.50 0.53 0.59 0.55 0.89 0.84 0.79 0.83 0.83 0.83 0.87 0.96 1.03 1.00 0.99 1.06 1.13 1.19 1.24 1.24 1.28 1.26 1.26 1.23 1.21 1.17 1.20 1.24 1.30 1.32 1.27 1.23 1.31 1.33 1.33 1.34 1.29 1.29 1.25 1.32 1.37 1.33 1.30 1.28 1.23 1.21 1.19 1.17 1.13 1.12 1.10 1.09 1.07 1.07 1.03 1.01 0.96 0.92 0.88 0.85 0.86 0.82
0.67 0.52 0.58 0.69 0.67 0.71 0.80 0.81 0.75 0.82 0.81 0.69 0.61 0.72 0.63 0.48 0.52 0.59 0.49 0.38 0.38 0.37 0.42 0.52 0.55 0.57 0.64 0.55 0.79 0.74 0.73 0.77 0.83 0.89 0.87 0.86 0.87 0.89 0.98 1.08 1.11 1.07 1.08 1.22 1.20 1.17 1.26 1.27 1.17 1.23 1.28 1.28 1.29 1.26 1.28 1.31 1.33 1.35 1.33 1.36 1.33 1.31 1.29 1.30 1.36 1.36 1.28 1.27 1.29 1.28 1.26 1.24 1.21 1.21 1.21 1.21 1.19 1.19 1.14 1.11 1.08 1.05 1.01 1.00 0.95 0.93
0.69 0.50 0.52 0.67 0.66 0.70 0.75 0.72 0.53 0.64 0.74 0.74 0.74 0.69 0.72 0.64 0.53 0.48 0.54 0.50 0.50 0.37 0.40 0.44 0.53 0.45 0.62 0.58 0.72 0.71 0.78 0.79 0.83 0.86 0.87 0.91 0.95 0.96 1.02 1.05 1.07 1.07 1.08 1.12 1.18 1.14 1.13 1.23 1.21 1.27 1.27 1.27 1.28 1.29 1.31 1.33 1.36 1.35 1.37 1.34 1.32 1.32 1.30 1.31 1.32 1.27 1.31 1.37 1.38 1.36 1.37 1.35 1.34 1.32 1.31 1.29 1.27 1.25 1.22 1.20 1.19 1.17 1.14 1.11 1.07 1.03
0.59 0.64 0.44 0.59 0.70 0.65 0.54 0.65 0.60 0.64 0.58 0.58 0.62 0.61 0.60 0.56 0.67 0.64 0.62 0.53 0.49 0.40 0.40 0.40 0.39 0.50 0.64 0.80 0.80 0.78 0.79 0.81 0.82 0.82 0.88 0.90 0.95 1.00 1.02 1.08 1.05 1.03 1.06 1.10 1.09 1.09 1.14 1.18 1.24 1.26 1.26 1.21 1.27 1.31 1.30 1.31 1.29 1.26 1.30 1.34 1.36 1.31 1.30 1.30 1.30 1.28 1.31 1.41 1.41 1.41 1.41 1.41 1.39 1.36 1.38 1.38 1.35 1.31 1.29 1.29 1.28 1.27 1.24 1.23 1.20 1.17
0.58 0.58 0.49 0.55 0.60 0.53 0.55 0.60 0.64 0.69 0.65 0.64 0.58 0.54 0.56 0.52 0.49 0.47 0.41 0.66 0.58 0.46 0.40 0.40 0.39 0.55 0.68 0.85 0.85 0.85 0.86 0.84 0.86 0.86 0.84 0.90 0.93 0.96 1.02 1.03 1.02 1.07 1.05 1.06 1.12 1.15 1.16 1.21 1.23 1.29 1.25 1.27 1.27 1.27 1.24 1.24 1.23 1.25 1.27 1.31 1.35 1.34 1.33 1.37 1.34 1.27 1.28 1.40 1.43 1.42 1.40 1.42 1.41 1.41 1.41 1.40 1.38 1.34 1.31 1.31 1.30 1.31 1.31 1.29 1.27 1.26
0.64 0.60 0.58 0.47 0.52 0.52 0.48 0.61 0.69 0.68 0.72 0.67 0.68 0.56 0.62 0.59 0.61 0.50 0.41 0.45 0.57 0.55 0.56 0.52 0.45 0.54 0.79 0.85 0.87 0.86 0.88 0.90 0.90 0.90 0.87 0.88 0.89 0.94 0.99 1.02 1.04 1.03 1.02 1.05 1.09 1.14 1.12 1.12 1.15 1.15 1.18 1.15 1.14 1.18 1.18 1.19 1.16 1.18 1.23 1.29 1.35 1.32 1.28 1.25 1.29 1.43 1.41 1.41 1.41 1.36 1.40 1.44 1.41 1.41 1.44 1.41 1.39 1.34 1.32 1.32 1.31 1.31 1.28 1.28 1.29 1.29
0.72 0.56 0.48 0.49 0.51 0.54 0.56 0.64 0.68 0.68 0.61 0.59 0.65 0.70 0.63 0.57 0.60 0.55 0.52 0.57 0.52 0.51 0.47 0.44 0.42 0.55 0.85 0.89 0.88 0.89 0.91 0.91 0.90 0.91 0.88 0.88 0.90 0.95 0.97 1.03 1.06 1.07 1.12 1.08 1.07 1.11 1.16 1.18 1.18 1.20 1.17 1.18 1.19 1.19 1.16 1.16 1.18 1.23 1.25 1.26 1.27 1.27 1.29 1.36 1.47 1.52 1.49 1.50 1.48 1.43 1.41 1.43 1.41 1.41 1.40 1.37 1.35 1.31 1.32 1.32 1.31 1.32 1.29 1.27 1.26 1.23
0.52 0.57 0.54 0.46 0.44 0.42 0.45 0.56 0.57 0.64 0.69 0.60 0.58 0.57 0.58 0.60 0.59 0.62 0.58 0.61 0.49 0.50 0.48 0.43 0.34 0.51 0.77 0.86 0.90 0.89 0.86 0.85 0.86 0.89 0.90 0.85 0.88 0.90 0.92 0.96 1.03 1.07 1.10 1.10 1.10 1.11 1.11 1.14 1.12 1.15 1.12 1.15 1.19 1.27 1.23 1.24 1.21 1.30 1.26 1.30 1.32 1.33 1.36 1.39 1.38 1.38 1.37 1.39 1.35 1.36 1.38 1.38 1.38 1.35 1.33 1.33 1.33 1.31 1.32 1.32 1.32 1.32 1.28 1.28 1.26 1.26
0.58 0.56 0.54 0.42 0.36 0.33 0.32 0.35 0.41 0.45 0.55 0.58 0.61 0.63 0.56 0.57 0.54 0.53 0.47 0.49 0.44 0.50 0.53 0.46 0.46 0.64 0.79 0.86 0.81 0.85 0.85 0.83 0.85 0.85 0.87 0.91 0.89 0.94 0.97 0.99 0.99 0.99 1.00 1.05 1.06 1.03 1.04 1.06 1.08 1.12 1.14 1.14 1.15 1.17 1.23 1.23 1.22 1.23 1.27 1.29 1.33 1.29 1.31 1.31 1.32 1.31 1.29 1.28 1.24 1.22 1.24 1.26 1.25 1.23 1.22 1.23 1.26 1.28 1.29 1.30 1.30 1.30 1.30 1.29 1.27 1.27
0.61 0.63 0.58 0.54 0.49 0.45 0.48 0.52 0.55 0.58 0.57 0.56 0.57 0.54 0.55 0.58 0.57 0.56 0.54 0.48 0.43 0.54 0.50 0.54 0.56 0.60 0.68 0.79 0.78 0.81 0.81 0.78 0.78 0.80 0.82 0.82 0.84 0.89 0.91 0.94 0.96 0.98 0.99 1.02 1.06 1.10 1.10 1.09 1.09 1.14 1.11 1.15 1.16 1.16 1.16 1.19 1.20 1.23 1.26 1.28 1.28 1.29 1.28 1.27 1.24 1.23 1.20 1.20 1.19 1.17 1.15 1.16 1.17 1.18 1.20 1.21 1.22 1.25 1.26 1.27 1.28 1.28 1.27 1.29 1.28 1.28
0.61 0.55 0.55 0.57 0.58 0.55 0.54 0.55 0.54 0.57 0.50 0.53 0.53 0.52 0.54 0.53 0.54 0.55 0.48 0.47 0.58 0.51 0.44 0.62 0.64 0.57 0.61 0.71 0.73 0.75 0.77 0.77 0.79 0.79 0.81 0.85 0.88 0.86 0.87 0.90 0.93 0.94 0.96 0.99 0.98 0.97 1.00 1.02 1.04 1.05 1.06 1.09 1.09 1.11 1.11 1.12 1.14 1.15 1.19 1.17 1.19 1.21 1.22 1.21 1.20 1.16 1.16 1.15 1.15 1.15 1.14 1.17 1.19 1.19 1.22 1.23 1.24 1.25 1.25 1.26 1.27 1.27 1.28 1.28 1.26 1.27
0.56 0.51 0.57 0.57 0.56 0.58 0.59 0.52 0.58 0.55 0.54 0.54 0.53 0.53 0.51 0.53 0.53 0.48 0.48 0.54 0.55 0.47 0.41 0.58 0.62 0.56 0.62 0.69 0.74 0.77 0.80 0.81 0.83 0.82 0.83 0.86 0.89 0.91 0.90 0.89 0.91 0.89 0.91 0.91 0.92 0.95 0.94 0.94 0.99 1.01 1.04 1.06 1.08 1.09 1.08 1.06 1.08 1.09 1.10 1.11 1.12 1.16 1.17 1.22 1.17 1.14 1.11 1.11 1.11 1.14 1.18 1.22 1.25 1.26 1.26 1.26 1.26 1.26 1.26 1.25 1.24 1.23 1.23 1.23 1.24 1.26
0.60 0.54 0.57 0.57 0.50 0.54 0.57 0.64 0.53 0.58 0.61 0.60 0.57 0.55 0.54 0.51 0.52 0.53 0.54 0.58 0.58 0.53 0.58 0.61 0.60 0.59 0.65 0.68 0.73 0.79 0.84 0.85 0.85 0.88 0.88 0.87 0.86 0.85 0.85 0.84 0.85 0.85 0.87 0.91 0.94 0.96 0.98 0.98 0.99 1.01 1.02 1.04 1.04 1.05 1.07 1.07 1.06 1.08 1.08 1.09 1.13 1.14 1.18 1.19 1.18 1.16 1.15 1.15 1.15 1.16 1.18 1.19 1.22 1.26 1.27 1.27 1.27 1.28 1.29 1.30 1.29 1.27 1.26 1.25 1.30 1.31
0.56 0.53 0.56 0.56 0.49 0.48 0.52 0.60 0.60 0.64 0.58 0.55 0.55 0.57 0.55 0.56 0.54 0.56 0.55 0.59 0.62 0.61 0.61 0.61 0.58 0.56 0.70 0.78 0.79 0.85 0.86 0.87 0.85 0.83 0.85 0.85 0.84 0.82 0.82 0.83 0.84 0.85 0.86 0.89 0.93 0.94 0.98 1.00 1.00 1.01 1.01 1.02 1.02 1.03 1.05 1.07 1.10 1.10 1.12 1.13 1.15 1.17 1.21 1.22 1.19 1.18 1.19 1.17 1.18 1.20 1.20 1.22 1.21 1.21 1.22 1.25 1.24 1.24 1.25 1.26 1.28 1.27 1.28 1.29 1.29 1.32
0.63 0.54 0.59 0.57 0.46 0.44 0.47 0.49 0.50 0.64 0.61 0.59 0.54 0.55 0.54 0.54 0.51 0.58 0.56 0.61 0.57 0.52 0.56 0.57 0.50 0.52 0.69 0.79 0.81 0.81 0.81 0.80 0.78 0.79 0.80 0.82 0.84 0.83 0.82 0.82 0.82 0.84 0.85 0.88 0.91 0.93 0.94 0.96 0.97 0.97 0.98 0.99 1.02 1.04 1.05 1.06 1.08 1.08 1.10 1.14 1.14 1.18 1.21 1.21 1.20 1.19 1.21 1.22 1.23 1.24 1.24 1.22 1.23 1.24 1.23 1.23 1.23 1.23 1.23 1.26 1.28 1.28 1.29 1.29 1.31 1.33
0.61 0.58 0.51 0.52 0.44 0.43 0.55 0.58 0.60 0.54 0.59 0.52 0.51 0.55 0.60 0.57 0.59 0.60 0.61 0.64 0.63 0.62 0.51 0.46 0.50 0.65 0.71 0.78 0.75 0.77 0.79 0.78 0.78 0.79 0.79 0.80 0.82 0.82 0.80 0.80 0.83 0.84 0.84 0.86 0.88 0.90 0.92 0.94 0.96 0.96 0.96 0.98 0.99 1.01 1.03 1.06 1.06 1.06 1.10 1.11 1.14 1.16 1.16 1.17 1.18 1.19 1.19 1.22 1.22 1.24 1.24 1.25 1.25 1.26 1.26 1.26 1.26 1.24 1.24 1.25 1.26 1.27 1.28 1.27 1.31 1.33
0.64 0.58 0.52 0.57 0.44 0.42 0.54 0.53 0.59 0.48 0.37 0.43 0.67 0.67 0.66 0.57 0.59 0.53 0.55 0.58 0.61 0.65 0.61 0.67 0.65 0.71 0.74 0.76 0.73 0.72 0.73 0.75 0.78 0.83 0.86 0.83 0.80 0.80 0.81 0.81 0.82 0.84 0.86 0.88 0.89 0.90 0.92 0.95 0.96 0.97 0.97 0.97 1.00 1.03 1.04 1.05 1.04 1.06 1.08 1.10 1.11 1.08 1.08 1.07 1.07 1.10 1.12 1.15 1.17 1.20 1.23 1.24 1.24 1.24 1.26 1.28 1.27 1.26 1.24 1.22 1.21 1.25 1.29 1.29 1.29 1.29
0.60 0.58 0.53 0.57 0.45 0.42 0.52 0.52 0.41 0.32 0.35 0.61 0.76 0.76 0.74 0.72 0.65 0.61 0.63 0.65 0.67 0.69 0.68 0.65 0.67 0.70 0.76 0.78 0.77 0.77 0.78 0.80 0.82 0.81 0.82 0.85 0.84 0.81 0.80 0.80 0.81 0.83 0.84 0.86 0.87 0.90 0.92 0.93 0.94 0.94 0.94 0.97 0.99 1.01 1.02 1.02 1.03 1.04 1.06 1.07 1.04 1.04 1.03 1.03 1.03 1.01 1.02 1.03 1.08 1.12 1.15 1.17 1.19 1.18 1.20 1.21 1.20 1.19 1.16 1.15 1.15 1.14 1.18 1.21 1.22 1.21
0.58 0.56 0.58 0.53 0.52 0.50 0.44 0.43 0.31 0.34 0.61 0.73 0.73 0.78 0.79 0.76 0.70 0.66 0.59 0.65 0.72 0.72 0.71 0.67 0.74 0.76 0.78 0.77 0.78 0.80 0.78 0.79 0.81 0.82 0.82 0.85 0.86 0.83 0.80 0.80 0.83 0.84 0.85 0.87 0.87 0.89 0.90 0.90 0.88 0.90 0.92 0.97 0.97 0.96 0.97 0.98 0.99 0.96 0.95 0.96 0.94 0.92 0.92 0.92 0.90 0.90 0.92 0.92 0.94 0.97 1.00 1.02 1.03 1.03 1.06 1.08 1.08 1.08 1.07 1.09 1.09 1.08 1.11 1.11 1.13 1.16
0.64 0.63 0.60 0.50 0.57 0.41 0.45 0.43 0.42 0.60 0.58 0.65 0.62 0.63 0.68 0.61 0.63 0.58 0.46 0.60 0.70 0.74 0.76 0.74 0.76 0.78 0.77 0.78 0.79 0.79 0.80 0.79 0.74 0.75 0.83 0.84 0.84 0.86 0.85 0.83 0.84 0.86 0.88 0.90 0.90 0.87 0.91 0.90 0.88 0.90 0.91 0.91 0.90 0.90 0.89 0.92 0.91 0.88 0.87 0.85 0.85 0.85 0.85 0.84 0.82 0.83 0.84 0.84 0.87 0.90 0.93 0.94 0.94 0.94 0.96 0.98 0.98 0.98 0.99 1.02 1.03 1.05 1.07 1.04 1.05 1.08
0.70 0.57 0.64 0.51 0.49 0.53 0.44 0.41 0.42 0.42 0.36 0.52 0.70 0.77 0.82 0.82 0.78 0.75 0.63 0.58 0.78 0.80 0.84 0.79 0.76 0.76 0.76 0.78 0.79 0.81 0.83 0.73 0.66 0.70 0.81 0.84 0.85 0.84 0.85 0.86 0.87 0.88 0.89 0.89 0.90 0.88 0.86 0.86 0.87 0.87 0.86 0.85 0.83 0.84 0.86 0.83 0.82 0.80 0.79 0.78 0.78 0.77 0.76 0.75 0.73 0.75 0.76 0.76 0.79 0.82 0.85 0.86 0.87 0.86 0.87 0.90 0.90 0.91 0.92 0.96 0.99 0.97 1.01 0.98 0.96 0.96
0.71 0.71 0.64 0.54 0.51 0.50 0.45 0.38 0.39 0.37 0.43 0.64 0.70 0.77 0.83 0.85 0.82 0.78 0.60 0.50 0.74 0.86 0.89 0.86 0.85 0.84 0.81 0.81 0.84 0.86 0.78 0.65 0.65 0.73 0.82 0.85 0.85 0.86 0.84 0.85 0.87 0.86 0.85 0.84 0.80 0.77 0.76 0.76 0.76 0.77 0.77 0.76 0.74 0.76 0.77 0.76 0.73 0.71 0.68 0.69 0.69 0.69 0.68 0.67 0.67 0.67 0.66 0.67 0.70 0.73 0.75 0.77 0.77 0.77 0.76 0.75 0.77 0.79 0.80 0.83 0.86 0.90 0.93 0.92 0.92 0.92
0.63 0.63 0.58 0.52 0.49 0.50 0.49 0.42 0.39 0.49 0.49 0.68 0.78 0.81 0.84 0.87 0.79 0.66 0.39 0.44 0.76 0.86 0.89 0.85 0.84 0.86 0.89 0.89 0.88 0.84 0.75 0.65 0.69 0.78 0.85 0.83 0.83 0.83 0.81 0.78 0.78 0.76 0.75 0.74 0.72 0.71 0.69 0.68 0.67 0.65 0.65 0.65 0.66 0.69 0.69 0.68 0.66 0.63 0.62 0.63 0.64 0.61 0.59 0.58 0.60 0.61 0.61 0.60 0.61 0.62 0.64 0.66 0.67 0.67 0.67 0.67 0.69 0.71 0.71 0.75 0.78 0.78 0.77 0.79 0.81 0.81
0.56 0.55 0.53 0.47 0.50 0.49 0.49 0.49 0.52 0.55 0.71 0.80 0.83 0.85 0.87 0.85 0.71 0.46 0.35 0.57 0.83 0.85 0.83 0.87 0.86 0.87 0.90 0.87 0.87 0.76 0.80 0.85 0.86 0.85 0.85 0.82 0.80 0.78 0.76 0.74 0.71 0.70 0.67 0.65 0.64 0.64 0.62 0.60 0.57 0.56 0.56 0.59 0.61 0.62 0.63 0.62 0.59 0.56 0.55 0.55 0.55 0.53 0.56 0.58 0.57 0.56 0.54 0.52 0.53 0.54 0.55 0.55 0.56 0.56 0.57 0.60 0.62 0.64 0.66 0.67 0.70 0.70 0.68 0.68 0.70 0.72
0.53 0.52 0.53 0.55 0.49 0.47 0.53 0.49 0.50 0.57 0.75 0.88 0.87 0.89 0.92 0.71 0.45 0.41 0.71 0.92 0.88 0.84 0.87 0.86 0.83 0.86 0.88 0.88 0.86 0.83 0.83 0.86 0.86 0.84 0.81 0.78 0.75 0.72 0.70 0.67 0.65 0.64 0.63 0.61 0.59 0.58 0.54 0.53 0.52 0.51 0.51 0.52 0.53 0.54 0.54 0.52 0.48 0.48 0.49 0.49 0.49 0.53 0.56 0.55 0.55 0.52 0.50 0.48 0.46 0.47 0.49 0.49 0.49 0.48 0.48 0.52 0.56 0.55 0.59 0.61 0.62 0.65 0.64 0.64 0.64 0.62
0.50 0.47 0.46 0.46 0.53 0.52 0.50 0.46 0.48 0.41 0.69 0.86 0.86 0.82 0.86 0.63 0.63 0.82 0.89 0.93 0.94 0.87 0.85 0.85 0.85 0.86 0.86 0.83 0.85 0.82 0.79 0.79 0.79 0.77 0.74 0.72 0.68 0.64 0.63 0.61 0.59 0.56 0.55 0.53 0.51 0.52 0.51 0.48 0.46 0.44 0.43 0.44 0.45 0.46 0.46 0.44 0.40 0.40 0.42 0.41 0.45 0.52 0.54 0.53 0.51 0.47 0.46 0.45 0.43 0.41 0.41 0.43 0.45 0.45 0.44 0.44 0.48 0.51 0.50 0.55 0.55 0.55 0.59 0.59 0.58 0.55
0.64 0.46 0.48 0.53 0.59 0.46 0.46 0.43 0.45 0.66 0.79 0.94 0.82 0.65 0.78 0.84 0.93 0.94 0.91 0.84 0.92 0.88 0.86 0.84 0.86 0.86 0.85 0.80 0.77 0.76 0.76 0.74 0.73 0.70 0.68 0.66 0.63 0.61 0.58 0.56 0.55 0.52 0.50 0.50 0.49 0.48 0.47 0.43 0.41 0.39 0.39 0.39 0.39 0.39 0.40 0.39 0.35 0.35 0.34 0.36 0.43 0.46 0.46 0.48 0.47 0.48 0.44 0.42 0.43 0.43 0.41 0.38 0.39 0.42 0.44 0.41 0.40 0.43 0.46 0.47 0.49 0.52 0.53 0.52 0.52 0.55
0.67 0.56 0.61 0.51 0.67 0.55 0.51 0.62 0.77 0.87 0.93 0.96 0.94 0.94 0.97 0.98 1.00 0.98 0.94 0.89 0.86 0.85 0.88 0.83 0.82 0.82 0.81 0.78 0.74 0.71 0.68 0.68 0.66 0.66 0.62 0.59 0.56 0.54 0.51 0.50 0.49 0.48 0.47 0.44 0.42 0.42 0.41 0.38 0.36 0.34 0.33 0.34 0.33 0.35 0.35 0.35 0.34 0.32 0.32 0.33 0.37 0.38 0.41 0.43 0.41 0.43 0.44 0.43 0.41 0.41 0.44 0.42 0.36 0.35 0.37 0.42 0.39 0.34 0.35 0.40 0.43 0.43 0.47 0.50 0.49 0.49
0.74 0.72 0.76 0.70 0.64 0.80 0.85 0.86 0.94 0.92 0.94 0.94 1.00 1.04 0.98 0.97 1.01 1.00 0.94 0.87 0.87 0.87 0.86 0.80 0.80 0.79 0.77 0.77 0.71 0.69 0.68 0.65 0.61 0.58 0.56 0.55 0.53 0.51 0.51 0.49 0.47 0.45 0.43 0.41 0.39 0.38 0.37 0.34 0.33 0.32 0.31 0.31 0.33 0.32 0.32 0.32 0.33 0.32 0.32 0.36 0.36 0.34 0.34 0.36 0.38 0.38 0.39 0.44 0.45 0.44 0.43 0.42 0.44 0.39 0.37 0.34 0.37 0.37 0.32 0.29 0.32 0.38 0.40 0.43 0.45 0.45
0.78 0.79 0.73 0.63 0.72 0.64 0.56 0.84 0.84 0.88 0.91 0.92 0.93 0.98 1.00 0.99 0.98 0.97 0.92 0.90 0.86 0.83 0.80 0.80 0.75 0.71 0.71 0.70 0.67 0.63 0.61 0.59 0.55 0.54 0.52 0.51 0.50 0.48 0.46 0.43 0.41 0.40 0.38 0.35 0.36 0.37 0.35 0.34 0.32 0.31 0.30 0.29 0.31 0.31 0.31 0.31 0.29 0.31 0.35 0.35 0.36 0.37 0.34 0.30 0.33 0.34 0.34 0.36 0.39 0.41 0.43 0.43 0.38 0.47 0.43 0.39 0.36 0.33 0.33 0.31 0.28 0.23 0.24 0.31 0.35 0.42
0.60 0.81 0.68 0.70 0.67 0.62 0.65 0.81 0.85 0.92 0.94 0.94 0.92 0.87 0.88 0.92 0.94 0.94 0.91 0.88 0.85 0.84 0.79 0.72 0.72 0.70 0.70 0.65 0.63 0.60 0.56 0.55 0.52 0.50 0.48 0.45 0.43 0.41 0.39 0.38 0.37 0.37 0.37 0.37 0.36 0.37 0.35 0.32 0.30 0.30 0.30 0.30 0.31 0.32 0.31 0.32 0.30 0.30 0.31 0.33 0.34 0.35 0.35 0.33 0.33 0.32 0.30 0.30 0.30 0.34 0.36 0.37 0.37 0.40 0.44 0.46 0.45 0.41 0.38 0.35 0.33 0.29 0.26 0.22 0.22 0.26
0.70 0.75 0.59 0.71 0.66 0.72 0.82 0.87 0.87 0.87 0.88 0.91 0.93 0.92 0.91 0.88 0.85 0.83 0.83 0.80 0.76 0.72 0.71 0.71 0.70 0.66 0.64 0.61 0.60 0.56 0.53 0.50 0.48 0.46 0.44 0.41 0.40 0.39 0.37 0.37 0.36 0.35 0.36 0.34 0.34 0.36 0.33 0.32 0.31 0.30 0.32 0.29 0.32 0.33 0.33 0.31 0.33 0.31 0.33 0.32 0.32 0.32 0.33 0.31 0.33 0.35 0.33 0.32 0.29 0.24 0.31 0.35 0.32 0.36 0.35 0.38 0.47 0.45 0.42 0.39 0.36 0.35 0.31 0.31 0.27 0.22
0.68 0.59 0.71 0.70 0.62 0.61 0.64 0.72 0.81 0.67 0.67 0.79 0.83 0.84 0.83 0.84 0.81 0.75 0.72 0.70 0.68 0.66 0.64 0.61 0.60 0.61 0.59 0.58 0.55 0.52 0.46 0.44 0.42 0.42 0.39 0.40 0.39 0.37 0.36 0.35 0.35 0.34 0.34 0.35 0.36 0.35 0.33 0.32 0.30 0.29 0.28 0.31 0.30 0.33 0.31 0.30 0.32 0.33 0.32 0.31 0.33 0.31 0.33 0.31 0.31 0.34 0.34 0.33 0.32 0.27 0.26 0.31 0.34 0.29 0.36 0.35 0.37 0.39 0.38 0.38 0.40 0.39 0.36 0.33 0.32 0.29
0.63 0.71 0.68 0.60 0.59 0.64 0.78 0.84 0.88 0.83 0.77 0.77 0.78 0.80 0.78 0.74 0.71 0.66 0.63 0.61 0.60 0.59 0.56 0.52 0.48 0.48 0.48 0.49 0.49 0.44 0.40 0.39 0.39 0.42 0.40 0.38 0.34 0.37 0.36 0.35 0.36 0.37 0.35 0.35 0.36 0.36 0.31 0.30 0.31 0.28 0.28 0.28 0.27 0.32 0.33 0.32 0.31 0.32 0.34 0.34 0.33 0.34 0.28 0.33 0.30 0.31 0.32 0.32 0.30 0.28 0.29 0.29 0.33 0.29 0.34 0.35 0.34 0.40 0.38 0.35 0.36 0.38 0.38 0.36 0.35 0.32
Wind_Speed
7 6 4 3 3 3 4 5 3 5 7 9 9 9 10 11 10 12 12 13 16 14 13 13 12 14 16 16 17 17 17 17 18 17 18 18 17 16 16 15 14 13 13 13 14 15 14 15 15 14 13 13 13 12 12 12 12 11 11 10 10 10 10 9 9 9 8 8 8 8 7 7 7 7 8 7 7 7 7 6 5 6 7 7 7 7
7 6 4 3 3 2 3 5 5 5 8 9 8 8 10 10 9 11 12 13 15 14 13 13 12 13 14 15 16 17 17 17 18 18 17 18 17 16 15 15 15 13 12 13 14 15 14 14 14 13 13 13 13 12 12 12 12 11 11 11 11 10 10 10 9 9 8 8 8 8 7 8 7 7 7 7 7 7 7 6 6 7 7 7 7 7
6 5 5 5 5 4 4 6 7 7 8 7 7 7 9 9 9 10 11 13 14 12 13 14 13 11 12 14 16 17 18 17 17 17 15 15 15 15 15 15 14 14 13 14 14 15 14 13 13 13 13 13 13 12 12 12 12 12 11 11 11 11 10 10 9 9 8 8 8 7 7 7 7 7 7 7 7 7 7 6 6 7 7 7 7 7
7 7 8 7 6 5 6 6 7 7 7 6 7 7 8 9 10 10 12 13 13 12 13 13 12 10 11 14 16 17 18 16 16 15 12 11 12 13 15 15 15 14 14 14 15 15 14 14 14 14 13 13 13 12 12 12 12 12 11 11 11 11 11 10 9 9 8 8 7 7 7 7 7 7 7 7 7 6 7 6 6 6 6 7 7 7
9 9 9 9 8 7 7 6 6 6 6 6 7 7 8 10 10 11 13 14 12 11 13 13 11 10 11 13 14 15 16 16 15 14 12 12 12 12 13 13 14 14 14 15 15 15 15 14 14 14 14 13 13 13 12 12 12 12 12 12 12 11 11 10 9 8 8 8 7 7 7 7 7 7 6 6 7 7 7 7 7 6 6 6 7 7
9 8 8 8 9 8 7 6 6 6 6 6 7 8 10 11 10 11 13 13 11 10 13 13 9 8 11 12 12 13 14 14 15 15 14 13 12 12 12 12 13 14 14 14 14 14 14 14 14 14 14 13 13 13 13 13 12 12 12 12 11 11 11 10 9 9 8 8 8 7 7 7 7 7 7 7 7 7 7 7 7 6 6 6 7 7
8 7 6 7 8 7 6 6 6 6 5 5 6 8 9 9 10 12 13 11 9 8 11 12 8 6 9 11 12 13 14 14 15 15 15 14 13 12 12 13 13 13 13 13 13 14 14 14 14 14 13 13 13 13 13 12 12 12 12 12 11 11 10 9 9 9 8 8 8 7 7 6 6 6 7 7 7 8 7 7 7 6 7 8 7 7
7 7 6 6 7 7 6 5 6 6 5 5 6 9 10 9 9 11 10 8 6 6 9 11 8 6 7 9 11 12 13 15 15 15 16 15 14 13 13 13 13 13 13 12 13 14 14 14 14 14 13 13 13 12 12 12 12 12 11 12 11 11 10 9 9 9 8 8 7 7 7 6 6 6 7 7 7 8 8 7 7 6 7 7 7 7
5 6 6 6 6 6 6 6 7 7 7 6 7 9 9 7 7 8 8 6 5 7 8 9 8 6 5 7 9 11 12 14 15 15 15 15 14 14 13 13 12 13 13 13 13 13 14 14 14 14 13 12 12 12 12 11 11 11 11 11 11 11 10 10 9 9 8 8 7 7 7 6 6 6 7 7 8 8 8 8 8 7 7 7 8 8
5 5 6 5 6 6 7 6 6 6 7 7 8 9 8 6 6 6 6 5 5 5 7 8 8 5 4 6 9 11 12 13 14 14 14 15 15 14 13 13 13 12 12 12 13 14 14 14 13 13 12 11 11 11 11 12 12 11 11 11 11 11 10 9 9 9 8 8 7 7 7 6 6 6 7 8 8 7 7 8 8 8 8 9 9 9
4 4 5 4 4 5 6 6 6 6 7 7 7 7 7 5 4 5 5 6 5 4 5 6 6 4 4 5 8 10 11 11 13 13 14 15 15 15 14 13 13 13 12 12 13 13 13 12 11 11 11 10 10 9 10 13 12 11 11 11 11 11 10 9 9 9 9 8 8 7 7 6 6 6 6 7 8 7 7 9 9 9 9 9 9 9
4 3 3 3 3 2 3 4 5 6 7 7 6 6 5 5 5 5 6 7 5 4 6 7 6 5 4 4 5 7 8 10 11 12 13 14 15 15 14 13 13 13 11 11 11 11 11 10 10 10 10 10 10 9 10 12 12 12 11 11 11 11 10 9 9 9 9 8 8 8 7 7 6 6 6 7 7 8 8 9 9 9 9 10 10 10
5 3 3 2 2 2 2 3 5 5 5 5 5 4 5 5 6 5 6 6 4 5 7 6 6 5 4 3 3 4 6 8 9 9 11 13 14 14 13 13 12 10 10 10 11 11 10 10 10 10 9 9 10 10 11 12 12 11 11 11 11 11 9 9 9 9 9 9 8 8 7 7 6 6 7 7 7 8 9 9 9 10 10 10 10 11
4 4 3 1 1 1 1 2 3 3 3 4 4 5 5 4 5 5 5 5 5 6 6 6 5 4 4 4 2 2 4 6 6 5 6 9 11 12 12 11 10 9 9 10 11 11 10 10 10 9 9 9 10 10 10 11 11 10 11 11 11 10 10 9 9 9 9 9 8 8 7 7 7 6 7 7 8 8 8 9 10 10 11 11 11 11
5 6 5 3 1 2 2 2 3 3 3 4 5 6 5 3 3 3 3 4 6 6 6 4 4 4 4 4 3 3 4 5 5 3 4 6 6 8 10 9 9 10 10 10 11 10 9 9 9 8 8 8 9 9 9 10 10 9 10 11 11 10 10 10 9 9 9 9 9 8 8 7 7 7 7 7 8 8 9 9 9 10 11 12 12 12
7 8 8 7 6 4 3 3 4 3 3 4 5 6 5 3 4 4 4 5 7 7 6 4 5 5 5 5 4 6 6 5 6 5 5 5 4 4 6 6 6 9 10 9 9 9 8 8 7 7 7 7 7 8 7 8 9 9 9 9 9 9 10 10 10 10 10 10 9 9 8 8 7 7 7 7 8 8 8 9 9 10 11 12 12 12
7 6 7 8 7 7 6 5 5 4 4 4 4 5 5 5 6 5 6 7 7 7 6 5 6 6 6 7 6 8 9 8 8 8 7 7 6 5 5 4 5 6 8 7 7 7 7 6 7 6 6 6 6 7 7 8 9 9 8 8 8 8 9 10 10 10 10 10 10 9 9 8 8 8 8 8 8 8 8 9 10 11 11 12 12 13
6 5 5 6 5 6 6 5 4 4 4 4 5 5 6 6 5 5 7 7 6 6 6 5 6 5 6 7 7 8 10 11 10 9 9 9 9 7 6 6 6 6 6 6 5 5 4 4 6 6 5 5 6 6 6 7 8 8 7 6 7 7 8 9 10 10 10 10 10 9 9 9 8 8 8 9 9 9 9 10 10 11 11 12 12 13
5 4 5 5 5 5 5 3 3 3 4 5 4 5 6 5 5 6 6 6 6 7 7 6 5 5 5 6 7 9 10 10 10 10 9 9 9 8 8 7 7 7 6 5 4 4 4 4 4 4 4 5 5 5 5 6 6 6 5 6 7 8 8 9 10 10 11 11 11 10 9 9 9 9 9 9 10 10 10 11 11 11 12 12 12 13
4 4 4 5 5 5 5 4 4 3 4 5 3 4 5 4 5 6 5 4 6 7 7 6 5 5 5 5 6 9 9 8 9 9 9 9 8 8 8 8 8 7 6 6 4 4 4 4 3 3 3 3 3 3 4 4 4 4 4 6 7 7 8 9 10 11 12 12 11 10 9 10 10 10 10 10 10 10 11 11 12 12 12 13 13 13
3 3 3 4 4 3 4 5 5 4 4 4 4 4 4 4 5 5 4 4 5 6 7 7 6 5 5 4 6 8 8 8 8 8 8 8 8 8 8 8 7 7 6 6 6 5 4 3 2 2 1 1 1 2 2 3 3 3 4 5 6 7 8 9 10 10 11 11 10 9 10 10 10 11 11 11 11 12 12 12 13 13 14 14 15 14
3 2 2 2 2 2 2 4 4 5 4 4 5 4 3 4 4 4 3 4 5 5 7 8 7 5 4 4 5 7 8 8 8 8 8 8 8 8 8 8 7 7 7 6 5 5 4 3 3 2 1 0 1 1 1 2 3 3 4 4 5 6 7 8 9 9 9 9 10 10 11 11 11 11 11 12 12 13 13 14 14 15 15 15 15 15
2 2 2 1 0 2 2 5 4 4 3 3 3 2 3 4 4 4 4 4 5 7 8 8 7 5 4 4 5 7 7 8 8 8 8 8 8 8 7 7 7 7 7 6 6 5 5 4 3 3 3 2 1 1 1 1 2 3 4 5 6 6 7 8 8 9 8 9 10 11 12 12 11 11 12 13 13 14 15 15 15 16 16 16 16 15
1 2 2 1 0 1 4 7 5 3 3 2 1 2 2 2 4 5 5 5 6 7 7 7 6 5 5 4 5 7 8 8 8 8 8 8 7 8 7 7 7 6 6 6 6 5 4 4 3 3 3 3 2 1 2 2 3 4 5 6 6 7 7 7 8 8 8 9 10 11 12 12 12 12 12 13 13 14 15 15 16 16 16 17 16 16
2 2 2 1 1 3 5 5 3 3 3 2 2 3 3 2 4 6 6 6 5 4 5 5 6 6 6 5 5 7 8 8 8 7 8 7 7 7 7 6 6 6 6 6 5 5 4 4 4 4 3 2 2 2 2 3 3 4 5 5 6 6 7 7 7 7 8 8 10 11 11 11 12 12 13 14 14 14 15 15 16 16 16 16 17 17
2 2 2 1 0 2 3 2 1 1 0 1 2 4 4 4 4 5 5 5 4 3 3 5 7 8 7 6 6 6 6 7 7 7 7 7 6 6 6 5 6 6 5 5 5 5 5 5 5 5 4 3 3 3 4 4 4 4 5 6 6 7 7 7 8 8 8 9 9 10 10 11 12 12 13 13 14 14 14 15 15 15 16 16 16 17
3 2 2 2 3 2 1 1 2 1 1 1 3 4 4 4 3 4 4 4 5 5 5 6 9 9 8 7 7 6 6 6 6 6 6 6 6 6 6 5 5 5 5 5 5 5 5 6 5 5 5 5 5 5 5 6 6 6 6 7 7 8 8 8 8 8 8 9 9 10 10 10 11 12 12 12 13 13 13 14 14 15 15 15 16 17
3 3 3 3 4 4 3 3 4 3 1 1 3 4 4 5 4 4 5 5 5 5 5 7 9 9 7 6 6 6 6 5 5 5 6 5 5 5 5 5 6 5 5 5 5 5 5 6 6 6 6 6 6 6 6 6 6 7 7 8 8 8 8 8 8 9 9 9 10 10 10 11 11 12 12 12 13 13 13 14 14 14 14 15 15 16
4 4 4 4 6 6 5 5 5 4 2 2 3 4 5 5 5 5 4 4 4 5 7 9 9 8 6 5 5 5 5 5 5 5 5 5 5 5 5 5 5 5 5 5 5 5 5 5 5 6 6 6 6 7 7 7 7 8 8 9 9 9 9 9 9 10 10 10 11 11 11 12 12 12 12 13 13 13 13 14 13 13 14 14 15 15
5 5 5 5 6 6 6 7 6 4 3 3 3 3 4 5 5 5 5 5 6 8 9 9 8 7 5 5 4 4 4 4 4 4 4 4 4 4 4 5 4 4 4 4 4 5 5 5 5 6 6 7 7 7 8 8 9 9 10 10 10 10 10 10 11 11 11 11 11 12 12 13 13 13 13 13 14 14 14 14 14 14 14 15 15 16
6 6 5 5 5 5 7 9 6 3 4 3 2 2 3 4 4 5 6 6 7 9 9 8 7 5 4 4 4 4 4 3 3 3 3 3 3 3 3 3 4 4 4 4 4 5 5 5 6 6 6 7 8 8 8 9 10 10 10 11 11 11 12 12 11 12 12 12 12 13 13 13 14 14 14 14 14 15 15 15 15 15 16 16 16 17
7 6 6 6 6 6 8 9 6 4 5 3 2 1 0 2 3 3 4 4 6 8 8 6 5 4 5 5 5 4 3 3 2 2 2 2 2 2 2 3 3 4 4 4 5 5 6 6 7 7 7 7 8 9 9 10 11 11 11 11 12 12 12 12 12 12 13 13 13 13 14 14 14 14 14 15 15 15 15 16 16 16 17 17 18 18
7 7 7 7 7 8 8 7 6 6 6 4 2 2 2 2 3 3 3 3 4 5 6 5 5 5 6 6 5 4 3 2 1 0 0 1 2 2 3 4 4 4 5 6 6 6 7 7 8 8 8 8 9 10 10 11 11 12 12 12 13 13 13 13 13 13 13 14 14 14 14 15 15 15 15 15 16 16 16 17 17 17 18 18 18 19
8 8 8 7 8 9 8 7 8 9 7 5 4 4 3 4 4 3 3 3 2 3 4 4 5 6 6 6 5 4 3 2 1 1 2 2 3 3 4 5 5 5 6 7 7 7 8 8 9 9 10 10 10 10 11 11 11 12 12 13 13 13 13 13 14 14 14 14 15 15 15 15 15 15 15 16 16 16 17 17 17 18 18 19 19 19
9 9 8 8 9 9 8 8 9 9 7 6 6 5 4 4 4 3 3 2 2 3 4 5 6 6 6 6 5 5 3 2 1 2 3 4 5 5 5 6 6 6 6 6 7 8 8 8 9 10 10 10 10 10 11 11 12 12 12 12 13 13 14 14 14 14 15 15 15 16 16 16 16 16 16 16 16 16 17 17 17 18 18 19 19 19
9 10 9 9 9 9 8 9 9 8 7 8 7 7 5 5 5 4 3 2 3 4 5 6 6 6 6 6 5 4 3 2 2 3 4 5 5 6 6 6 6 6 6 6 7 8 8 8 9 10 9 9 10 11 11 11 12 12 12 12 12 13 13 14 14 14 15 15 15 15 16 16 16 16 16 16 16 17 17 17 18 18 18 18 18 18
11 10 10 10 9 9 9 9 8 8 9 10 8 8 7 7 6 6 5 4 5 5 6 6 7 7 6 6 5 5 4 4 4 5 5 5 5 5 5 6 6 5 6 6 6 7 7 8 9 9 9 9 10 11 11 11 12 12 12 12 13 13 13 14 14 14 14 15 15 15 15 16 16 16 16 16 16 17 17 17 17 17 18 17 17 17
11 11 10 10 10 9 10 10 9 10 10 9 8 7 7 8 7 7 6 5 6 7 7 7 7 7 6 6 5 5 6 5 5 6 6 6 5 5 5 5 5 5 5 5 5 6 7 7 8 10 9 9 10 10 11 11 12 12 12 12 13 13 13 14 14 14 14 15 15 15 15 15 15 15 16 16 16 16 16 16 16 16 16 16 16 16
10 10 11 11 11 11 11 11 12 10 9 9 9 8 8 8 8 8 8 7 7 6 6 5 5 5 5 5 5 5 6 6 5 5 5 5 5 4 4 4 4 4 4 5 6 6 7 8 8 9 10 10 10 10 11 11 12 12 12 13 13 13 13 14 14 14 14 14 14 14 14 14 15 15 15 15 15 15 15 15 15 15 15 15 15 15
10 10 11 12 13 12 11 12 13 11 9 10 10 9 8 9 9 10 10 8 7 6 5 6 6 5 5 4 5 6 7 6 5 5 5 4 3 4 4 4 4 4 5 6 7 7 8 8 9 9 10 11 11 11 12 12 12 12 12 13 13 13 13 13 13 13 13 13 14 14 14 14 14 14 14 14 14 14 14 14 14 15 15 15 15 15
9 10 11 12 12 11 11 12 13 11 10 10 10 8 8 9 9 10 9 7 7 7 6 6 7 7 6 5 6 5 5 4 4 5 5 3 3 3 3 4 4 5 6 7 7 8 8 9 9 10 11 11 11 12 12 12 12 12 12 12 12 12 12 12 12 12 12 12 13 13 13 13 13 13 13 13 13 14 14 14 14 14 15 15 15 15
10 10 10 10 11 11 11 11 12 11 11 11 10 9 8 9 9 9 8 7 7 7 6 6 6 6 6 6 5 4 3 3 4 4 3 3 3 3 4 4 5 6 6 7 8 8 9 9 10 10 11 11 11 11 11 11 11 10 11 11 11 11 11 11 11 11 12 12 12 13 13 13 13 13 14 13 13 14 14 14 14 14 15 15 15 15
10 9 9 9 10 10 10 11 12 11 11 12 11 10 10 9 9 8 8 7 7 6 5 5 5 5 6 6 5 4 4 4 4 3 3 3 3 4 4 5 6 6 7 8 8 9 9 9 10 10 10 11 10 10 10 9 9 9 10 10 10 11 11 11 11 11 12 12 12 13 13 13 13 14 14 14 14 14 15 15 15 15 15 15 15 15
10 10 9 9 10 10 10 11 11 11 10 10 10 10 9 7 8 8 7 7 7 6 5 5 5 5 5 5 5 4 4 4 3 3 3 3 4 5 5 6 7 7 8 8 9 9 9 9 9 9 9 9 9 9 8 8 9 9 9 10 10 11 11 11 12 12 12 13 13 13 14 14 14 14 15 15 15 15 15 16 16 16 16 16 16 16
10 9 9 9 10 10 9 9 10 9 8 7 7 8 7 6 7 7 7 6 6 6 5 5 5 5 4 4 4 4 4 4 4 4 4 4 5 5 6 6 7 7 8 8 8 8 8 8 8 8 8 8 8 8 8 8 9 9 10 10 11 11 11 12 12 12 13 13 13 14 14 14 15 15 15 15 15 16 16 16 16 16 17 17 17 17
8 8 9 9 9 9 7 7 7 7 6 5 5 6 6 5 6 6 6 6 5 5 5 5 5 5 5 5 4 4 4 4 4 4 5 5 5 6 6 7 7 7 7 7 7 7 7 7 7 7 7 7 8 8 8 9 9 10 10 11 11 12 12 12 13 13 13 14 14 14 14 15 15 15 15 15 16 16 16 17 17 17 17 18 18 18
8 9 9 8 9 9 7 6 7 6 6 5 5 5 5 5 5 5 5 5 5 4 4 4 4 4 4 4 4 4 4 5 5 5 5 6 6 6 6 6 6 6 6 6 6 6 6 6 6 7 7 7 8 9 9 9 10 10 11 11 12 12 12 13 13 13 14 14 15 15 15 15 16 16 16 16 16 16 17 17 18 19 19 19 19 19
8 9 9 9 9 9 8 7 6 5 5 5 5 5 6 6 6 5 5 4 4 3 3 3 4 4 3 4 4 5 5 5 5 6 6 6 5 5 5 5 5 5 5 6 6 6 6 6 7 7 8 8 9 10 10 10 11 11 12 12 13 13 13 13 14 14 14 15 15 16 16 17 17 17 17 17 17 18 18 18 18 19 19 20 20 20
9 9 9 9 8 8 8 8 7 5 5 5 6 6 6 6 5 5 4 4 3 3 3 3 3 4 4 4 5 5 5 5 5 5 5 5 5 5 5 5 5 5 5 5 6 6 6 7 8 8 9 10 10 11 11 11 12 12 13 13 13 14 14 15 15 15 15 15 16 17 17 18 18 19 19 19 18 18 19 20 19 20 20 20 21 21
10 9 9 9 9 8 9 9 8 7 7 7 6 6 6 5 5 5 4 4 3 3 3 3 3 3 4 4 5 5 5 4 4 4 4 4 4 4 4 4 5 5 5 6 6 7 7 8 9 10 10 11 11 11 12 12 13 13 13 14 14 15 15 16 16 16 16 16 17 18 18 19 19 19 20 21 20 20 20 21 21 21 21 21 21 22
8 8 8 8 8 8 8 9 8 7 7 6 6 6 5 5 4 4 4 3 3 3 4 4 4 4 4 4 4 4 4 4 4 4 4 4 4 4 5 5 6 6 7 7 8 8 9 10 10 11 11 12 12 12 13 13 13 14 14 15 15 15 16 17 17 17 18 18 18 19 20 20 20 20 21 22 22 22 22 22 22 22 22 22 23 23
Wind_Direction
30 32 42 62 82 125 132 129 158 182 161 155 164 173 173 175 180 174 177 187 183 177 178 180 174 170 177 184 188 191 189 192 199 193 182 183 187 191 196 200 203 205 205 203 202 202 203 203 203 206 208 208 211 214 215 215 216 218 221 224 226 228 230 232 235 239 242 248 253 256 262 266 265 270 274 271 273 276 274 275 279 284 292 293 290 291
31 33 46 94 118 144 135 134 158 156 141 149 158 165 170 171 171 170 175 180 178 176 173 168 166 169 179 184 184 188 189 192 196 191 183 184 187 192 196 200 203 203 201 199 198 201 203 202 201 204 207 209 211 214 215 216 217 220 223 224 226 228 229 231 234 236 240 247 251 254 260 264 262 265 271 272 273 270 267 272 280 284 289 289 288 291
36 47 66 104 128 139 127 129 140 128 125 142 146 150 164 160 153 165 174 171 170 175 171 166 167 172 185 186 183 188 190 192 196 189 181 183 185 191 197 198 198 198 197 198 200 203 205 205 205 206 208 211 213 215 216 217 218 221 224 224 225 227 227 228 231 234 241 249 253 256 260 263 263 264 268 271 271 266 263 270 279 283 287 289 286 286
44 57 70 84 98 109 111 118 131 128 123 133 139 145 155 154 152 161 172 173 170 172 170 169 174 178 185 184 183 188 187 187 192 184 175 180 184 189 193 193 195 197 198 200 204 206 206 207 208 209 211 213 215 217 218 219 220 223 224 224 224 226 226 227 230 236 241 247 253 257 260 261 263 267 266 264 265 267 269 272 276 275 280 291 289 284
51 63 73 76 79 86 96 111 126 131 129 132 144 148 150 158 166 164 164 168 168 170 173 172 176 183 188 185 182 186 187 185 184 180 179 184 186 189 192 195 199 202 203 204 206 208 209 210 211 212 213 215 217 219 220 221 223 224 223 223 225 225 225 226 229 235 240 245 250 254 257 258 260 266 267 262 263 265 263 268 272 269 275 289 291 285
55 70 78 76 75 72 79 102 112 120 129 133 143 149 148 155 165 159 153 155 156 163 174 177 179 181 185 189 185 184 188 188 185 185 187 190 192 197 202 205 206 206 208 208 207 208 209 211 211 212 214 216 218 221 221 222 223 223 221 222 224 223 224 226 230 234 238 243 247 250 253 253 255 262 265 265 264 259 255 264 268 264 277 290 291 288
59 67 69 70 70 65 68 94 104 107 120 129 141 150 154 157 157 154 151 151 152 156 174 186 190 179 181 189 188 187 191 191 190 191 192 195 199 203 207 208 209 209 210 210 208 207 208 210 212 214 215 217 220 222 223 223 222 221 220 221 223 222 222 225 231 235 237 240 242 245 249 250 253 259 261 262 261 258 258 267 269 266 281 291 288 287
62 62 64 71 70 69 70 93 114 118 124 135 149 153 160 163 155 156 157 151 150 154 169 182 179 167 187 196 189 190 196 194 193 195 197 201 204 206 207 207 210 210 209 211 212 210 211 212 213 215 215 218 221 223 225 225 223 221 220 220 220 220 221 224 231 234 234 236 237 240 247 250 255 258 257 258 257 257 260 269 276 276 284 290 289 290
43 48 54 64 68 78 86 103 121 126 127 130 138 141 146 147 139 150 157 149 154 160 162 173 176 170 190 203 192 190 196 196 198 200 203 206 207 207 207 208 213 211 207 212 214 212 214 214 215 216 216 219 221 222 225 224 221 220 220 220 219 220 222 223 227 230 230 233 234 238 247 253 259 260 259 259 255 253 256 266 276 278 281 286 288 291
32 41 46 60 66 72 85 98 111 119 121 120 123 127 125 115 115 134 142 139 146 154 161 172 181 182 185 195 193 194 198 200 202 205 208 209 207 208 211 214 217 213 210 215 216 214 215 213 214 215 215 217 218 222 224 219 218 220 220 219 218 219 222 222 223 225 226 229 233 239 247 253 259 261 261 262 257 250 253 262 270 274 277 282 283 285
39 53 43 60 75 72 78 85 98 111 117 120 126 129 121 112 128 141 142 146 143 145 165 161 152 158 171 180 186 193 202 206 207 211 213 212 210 213 216 217 218 215 212 214 215 216 216 212 210 212 214 215 216 221 219 213 217 221 218 218 217 217 220 221 221 221 223 228 233 239 246 252 258 261 262 265 263 257 257 261 265 271 275 279 281 282
26 61 39 57 84 78 75 82 102 110 112 119 128 132 129 133 148 154 157 161 152 140 151 144 126 126 134 153 182 198 208 209 210 216 218 216 214 215 217 216 216 215 210 207 207 209 212 212 210 210 215 217 215 217 213 211 218 219 216 216 215 215 218 220 220 221 224 228 232 238 245 251 261 267 264 263 264 263 264 263 263 270 274 277 280 280
9 24 22 63 91 57 64 100 121 118 113 118 120 126 133 139 145 146 150 155 142 127 128 125 122 116 105 112 161 193 202 206 212 219 221 219 215 212 213 212 212 208 203 203 203 204 207 210 211 210 211 213 212 211 211 213 216 215 215 217 214 214 216 218 221 223 225 228 231 238 245 251 261 268 267 266 264 264 267 266 265 269 272 273 278 278
11 14 11 11 118 97 98 118 133 133 136 137 134 141 141 135 138 138 141 143 134 130 119 103 105 98 89 93 106 172 191 205 217 215 209 213 211 207 206 205 204 203 202 203 202 202 202 203 206 207 207 210 210 209 210 213 214 214 216 216 214 215 216 220 224 225 227 231 233 238 245 252 259 265 269 271 271 268 268 268 267 269 271 273 276 277
30 35 38 33 72 152 162 134 130 131 152 156 149 155 159 151 145 140 138 140 133 132 123 102 93 83 83 84 86 126 156 185 196 159 154 184 194 196 198 196 196 204 207 206 202 197 193 193 198 202 202 204 207 208 211 216 218 220 218 214 214 217 218 222 226 228 231 234 236 240 245 252 260 266 269 271 275 275 274 275 273 271 273 274 276 277
35 48 57 64 77 108 129 133 136 129 147 159 153 158 167 159 149 132 107 118 125 128 127 115 105 100 90 74 86 108 113 147 163 132 128 157 160 167 184 185 187 199 203 203 202 193 182 179 185 191 193 197 203 205 211 217 219 224 223 217 218 221 222 226 229 232 235 237 239 242 246 252 260 267 270 272 276 277 276 281 283 279 277 276 276 277
39 59 76 79 77 84 93 105 122 125 130 144 156 169 163 138 138 135 117 121 127 121 122 129 127 124 105 77 86 108 102 110 129 123 122 134 133 139 161 168 163 175 184 187 191 186 176 170 175 180 184 192 200 202 210 217 218 222 225 224 224 225 227 231 234 236 239 241 243 244 248 252 258 264 268 271 276 279 278 281 282 282 283 281 278 278
37 56 84 78 64 82 97 93 105 125 134 135 138 147 147 136 139 143 131 132 134 121 122 136 135 135 121 96 91 103 100 98 106 110 112 117 122 127 134 138 135 137 149 163 171 169 158 157 166 172 178 188 197 205 212 216 217 221 227 229 230 231 234 237 240 240 242 245 245 245 248 251 255 261 266 271 276 281 284 284 281 281 282 283 281 280
45 54 73 62 59 88 100 81 82 116 141 144 125 116 134 143 143 146 138 135 137 129 127 129 120 112 113 109 98 97 100 98 97 97 98 102 106 110 108 105 110 117 121 126 139 144 137 139 152 167 181 190 199 209 218 222 225 229 234 237 239 240 243 244 243 243 245 245 244 245 249 252 256 261 268 275 279 283 285 285 284 283 280 281 281 280
47 52 66 62 65 79 82 71 72 102 138 151 141 124 131 123 119 131 135 134 137 134 131 128 119 109 106 105 97 94 99 101 97 94 92 92 89 89 96 98 101 105 105 104 108 119 133 141 150 171 186 200 214 222 231 238 242 243 246 249 249 249 251 249 247 247 249 248 246 247 251 254 259 264 270 276 280 283 284 285 286 285 281 281 281 280
26 48 56 53 59 67 77 78 78 93 125 140 133 127 122 109 115 118 111 130 146 140 132 127 119 109 106 108 99 95 97 97 95 94 91 90 84 80 87 94 96 95 93 96 102 108 121 134 139 152 174 231 250 248 258 266 265 260 259 256 253 256 259 256 253 251 250 250 253 256 257 258 262 267 272 275 279 283 285 286 288 287 285 284 282 280
13 54 22 24 56 45 75 108 108 97 107 134 131 116 107 115 120 104 100 140 155 138 129 126 119 106 108 123 111 100 99 95 92 93 91 90 86 82 83 83 84 86 84 86 91 94 98 104 100 92 73 356 280 268 278 282 273 270 272 266 262 266 268 262 256 251 249 253 261 265 263 262 265 271 275 278 282 285 287 288 288 287 288 288 285 282
27 34 351 0 36 354 68 125 124 86 86 136 137 113 114 118 114 110 126 148 141 130 128 126 119 107 110 130 118 103 101 96 91 92 90 88 86 85 82 77 74 76 78 80 82 79 82 87 80 60 46 36 3 300 302 289 269 274 279 271 268 269 267 265 261 256 258 265 270 271 270 271 276 282 285 286 287 287 288 289 289 287 287 287 287 285
4 11 352 31 45 48 103 112 107 88 100 116 109 124 138 125 115 120 134 137 128 133 139 134 124 118 123 133 121 109 106 100 94 93 89 86 82 81 81 77 73 70 69 73 74 69 69 69 59 45 37 24 3 346 330 302 288 294 292 278 270 269 271 273 272 271 276 281 283 285 285 287 291 295 295 293 291 290 290 290 289 287 286 286 286 286
323 350 328 345 86 137 131 125 118 111 111 90 78 100 91 77 104 118 129 130 125 143 157 146 135 129 130 131 119 111 108 103 97 93 89 87 84 81 78 74 71 69 64 62 62 57 53 46 37 34 32 16 355 344 332 318 309 307 303 293 285 287 293 296 296 297 299 299 298 297 296 298 299 300 299 296 293 292 292 292 291 289 287 286 286 285
281 300 295 318 65 157 159 174 161 122 75 23 61 79 71 64 99 128 136 129 128 140 138 135 138 136 132 127 118 113 110 104 98 92 88 88 89 88 84 77 73 71 69 65 59 52 48 39 31 31 31 24 10 354 347 346 340 327 317 314 312 315 319 317 314 314 312 310 308 304 302 301 301 301 301 300 297 295 294 294 293 291 289 287 286 285
248 257 284 287 274 258 241 211 182 204 290 55 71 66 66 66 88 128 130 123 131 122 105 122 138 138 134 128 123 121 114 105 98 94 91 88 89 91 90 85 79 75 72 68 60 53 46 38 32 30 26 21 14 6 1 357 350 341 333 331 331 330 329 326 323 319 316 316 313 310 307 305 303 302 302 303 303 301 300 299 297 295 294 291 288 286
239 249 273 274 271 265 251 222 203 218 275 78 90 76 71 73 90 119 124 133 144 130 121 139 142 136 135 132 125 121 114 107 102 97 94 89 87 89 89 87 83 77 69 61 54 47 40 33 25 21 18 14 10 7 2 357 352 347 343 341 339 336 331 328 326 323 319 318 316 314 312 310 308 306 305 305 304 302 302 302 300 298 297 295 292 290
249 253 263 272 274 268 261 253 234 223 213 103 94 90 88 86 95 113 126 149 159 150 150 152 142 134 139 138 128 120 112 112 110 100 96 91 84 84 83 79 75 70 61 51 43 35 29 23 15 11 8 3 360 358 355 352 349 345 343 341 340 338 334 329 326 324 321 318 317 315 313 312 310 309 307 306 304 303 304 303 302 300 299 298 296 294
251 247 255 271 274 266 262 262 253 218 165 126 98 92 97 93 94 107 118 129 134 138 145 145 135 132 142 145 141 134 122 117 110 97 93 87 77 72 63 54 50 48 42 33 28 24 16 8 3 3 359 352 349 347 344 344 342 339 338 337 335 335 333 329 326 324 322 320 319 318 316 314 312 309 308 307 305 305 306 305 304 302 300 299 298 297
254 248 255 260 258 257 253 252 245 181 148 141 115 91 99 104 104 109 118 128 133 136 143 144 138 139 155 161 157 149 136 125 113 97 88 74 61 51 41 32 21 14 12 8 8 9 4 356 352 351 348 343 339 337 335 334 333 333 333 333 332 332 331 328 326 324 322 321 320 319 318 317 314 312 310 308 308 308 308 307 306 304 302 302 301 299
252 253 258 252 248 254 252 251 241 183 163 152 117 60 103 140 133 130 143 154 154 153 156 160 164 172 179 176 169 162 151 135 118 99 79 61 47 28 15 10 358 348 346 346 348 349 346 343 340 338 338 335 330 328 328 327 327 328 328 328 329 329 328 327 325 323 322 321 320 319 318 317 316 315 312 309 309 308 307 306 307 305 303 303 303 301
255 254 253 248 250 253 250 255 254 225 207 202 213 277 273 184 161 158 163 163 168 178 184 189 189 184 182 182 179 173 172 174 162 128 352 351 357 345 336 338 337 329 327 333 337 335 333 333 332 330 329 327 325 325 324 323 323 323 324 325 325 326 326 327 325 322 321 321 321 319 318 316 316 315 313 311 310 308 308 308 308 307 305 304 304 303
252 251 250 244 246 254 258 261 257 244 237 237 244 262 259 214 192 181 177 180 195 207 203 192 183 180 182 188 188 187 193 201 205 256 287 300 312 315 314 319 323 324 326 327 328 326 325 327 326 323 323 324 324 324 322 321 322 322 323 324 325 325 326 327 325 323 321 321 321 320 319 318 318 316 314 313 311 310 310 311 310 309 308 306 305 304
246 249 250 245 245 254 264 262 254 248 244 243 248 255 244 211 194 176 170 188 206 200 189 183 182 183 185 187 187 189 194 203 235 276 294 301 303 306 313 318 319 320 318 316 316 318 321 323 321 320 323 325 324 324 323 323 323 324 326 327 327 327 326 326 326 325 324 323 322 321 320 319 319 318 317 315 313 312 312 312 312 312 312 311 310 308
245 247 246 248 249 251 254 255 252 247 242 241 246 246 231 212 206 203 206 230 239 222 202 192 189 188 189 189 193 199 204 223 262 287 299 302 303 307 315 317 314 312 309 309 313 317 322 323 321 321 325 326 324 324 325 326 326 327 329 329 329 329 329 329 329 328 327 326 325 324 323 321 320 319 318 318 316 315 315 314 314 313 313 313 313 312
243 243 244 248 248 245 250 255 251 246 242 240 241 238 231 232 237 234 232 236 241 237 220 205 200 200 199 200 207 216 224 241 271 295 305 305 305 307 309 309 310 311 312 314 317 320 324 325 322 322 325 326 326 327 327 327 327 327 329 330 330 331 331 331 332 331 330 329 328 327 325 324 322 321 321 321 320 319 319 319 318 317 316 316 317 316
245 242 244 248 246 242 246 249 247 246 244 242 242 239 237 245 246 237 234 235 238 241 234 219 213 211 212 218 223 230 242 257 273 289 298 301 302 302 304 309 313 316 320 323 325 326 326 326 325 325 327 328 328 328 327 327 327 327 328 329 329 329 330 330 330 330 329 329 328 328 327 326 326 326 326 326 326 325 324 323 324 324 323 322 322 321
253 245 243 245 247 246 245 245 248 251 248 244 245 241 239 244 241 237 241 242 241 244 235 221 224 226 223 228 234 242 255 264 269 275 282 291 300 305 308 314 318 325 330 329 328 328 327 327 327 327 329 330 329 328 326 326 326 326 327 327 326 326 327 328 329 329 330 330 330 329 329 330 331 332 332 332 331 331 330 329 328 329 329 328 327 327
256 249 245 244 247 252 255 253 253 253 247 241 239 236 237 240 237 240 246 243 238 240 227 216 230 241 236 236 245 255 264 267 260 254 259 270 289 303 311 319 323 326 328 327 326 326 326 326 327 327 328 329 328 327 325 324 324 325 325 325 326 328 329 330 331 332 333 333 333 334 333 334 334 334 334 334 334 333 334 333 333 332 332 333 332 332
256 253 246 243 245 251 256 255 252 249 245 240 238 237 239 239 236 241 246 238 232 238 236 227 230 232 229 234 246 257 267 260 239 235 244 259 278 294 309 320 323 323 325 324 322 321 322 325 326 327 326 325 325 325 324 324 325 327 328 328 330 332 333 334 335 335 336 337 338 339 339 338 338 337 336 335 334 333 333 333 334 334 334 334 334 334
252 250 243 240 242 245 248 251 251 248 243 239 238 240 242 242 240 240 241 233 227 230 233 231 228 222 220 225 233 239 239 228 224 230 245 266 284 297 308 315 317 318 319 319 318 319 319 321 323 324 324 325 326 327 327 328 331 333 333 335 336 337 336 337 337 338 339 340 340 341 340 339 339 338 337 335 333 333 333 332 331 331 331 330 330 330
249 247 242 239 241 242 243 245 249 250 243 237 235 238 243 243 236 230 229 223 216 214 215 216 215 213 210 213 219 223 222 224 229 236 248 267 285 296 304 308 310 312 313 315 317 317 316 317 320 323 325 326 328 330 332 335 338 338 339 339 338 337 337 338 337 337 338 338 337 337 337 336 336 335 334 333 331 330 332 331 329 328 327 325 325 324
249 247 242 239 241 242 239 239 248 254 247 236 232 233 234 230 221 218 218 212 206 208 209 207 209 212 211 213 218 221 222 226 231 239 254 273 284 291 297 302 305 308 310 312 315 316 317 320 322 324 327 328 331 333 335 338 340 339 340 339 336 334 335 334 333 333 333 333 332 332 331 332 332 331 331 331 330 329 329 329 328 327 325 323 322 321
249 245 241 240 240 239 239 243 250 252 242 230 224 219 212 206 207 209 209 208 208 211 213 212 213 217 218 217 216 219 224 230 238 250 264 275 281 287 293 297 301 304 307 311 314 316 319 322 324 327 330 332 333 334 335 335 336 336 336 334 332 331 331 330 329 329 328 328 328 328 327 327 328 329 329 329 329 329 328 327 327 326 325 324 324 323
241 237 238 239 234 231 233 238 239 237 230 218 212 208 199 197 201 202 202 205 206 209 215 216 213 213 213 214 218 226 234 240 249 260 268 274 281 286 290 295 300 304 307 310 313 316 318 322 325 328 330 330 330 330 330 331 331 331 329 328 327 328 328 327 327 327 326 325 324 324 324 324 323 323 325 327 327 328 328 327 327 326 324 323 323 323
239 237 235 233 231 230 230 231 231 232 230 219 211 206 196 191 193 197 198 198 199 205 213 215 215 218 221 224 231 239 244 250 257 263 270 277 282 286 290 296 301 304 307 309 311 314 317 320 322 323 325 325 325 324 325 325 325 325 324 324 324 325 324 324 324 324 323 323 322 321 321 322 320 318 319 321 323 323 324 324 325 326 324 322 321 320
250 246 238 232 231 229 225 222 222 225 227 220 207 198 194 189 186 187 190 194 199 206 211 219 231 240 243 243 244 246 251 258 263 268 273 278 281 284 289 293 297 301 305 307 310 313 315 318 319 319 319 320 319 319 319 320 320 320 320 321 321 321 321 320 319 319 320 320 320 319 318 319 319 317 315 315 315 317 319 319 319 322 324 322 321 319
249 242 233 225 221 217 212 208 202 197 203 202 188 180 185 187 184 185 192 199 206 212 218 231 246 253 254 256 257 259 263 268 270 271 272 276 281 285 288 290 293 298 300 303 307 310 311 313 314 314 314 313 313 313 314 314 314 315 316 317 318 318 317 317 315 316 317 317 318 318 317 316 316 316 315 314 312 313 315 316 314 315 318 319 319 317
245 237 229 222 219 217 213 213 213 207 199 194 187 181 186 192 193 195 200 205 212 222 231 242 255 263 267 270 270 271 273 275 277 276 276 280 285 285 284 285 287 290 294 297 299 302 305 307 308 308 309 310 308 308 309 310 310 311 312 313 314 314 315 315 314 313 314 315 315 316 316 315 315 314 314 314 312 310 311 312 312 312 312 314 315 315
243 235 227 220 217 215 210 211 216 206 188 182 186 189 193 199 199 198 203 213 222 230 236 243 253 262 271 277 277 276 274 275 279 282 282 283 285 285 286 289 291 293 296 296 296 298 301 302 302 303 304 305 304 305 306 306 307 308 309 310 311 311 312 312 312 311 312 313 314 313 313 313 314 313 312 312 312 310 309 308 309 309 311 312 313 313